Weather History for Kendall, FL

Change the Weather History Date:

Wednesday, November 2, 2011

  Actual Average Record
Temperature  
Mean Temperature 76 °F -  
Max Temperature 82 °F 82 °F 89 °F (1997)
Min Temperature 69 °F 62 °F 51 °F (1993)
Cooling Degree Days 11    
Growing Degree Days 26 (Base 50)    
Moisture  
Dew Point 66 °F    
Average Humidity 74    
Maximum Humidity 90    
Minimum Humidity 58    
Precipitation  
Precipitation 0.00 in - - ()
Sea Level Pressure  
Sea Level Pressure 30.08 in    
Wind  
Wind Speed 12 mph (NE)    
Max Wind Speed 21 mph    
Max Gust Speed 28 mph    
Visibility 10 miles    
Events      
Averages and records for this station are not official NWS values.
T = Trace of Precipitation, MM = Missing Value Source: NWS Daily Summary

Daily Weather History Graph

Daily Weather History Graph

Search for Another Location

Airport:

Trip Planner

Search our weather history database for the weather conditions in past years. The results will help you decide how hot, cold, wet, or windy it might be!

Date:

Astronomy

Nov. 02, 2011 Rise Set
Actual Time 7:30 AM EDT 6:39 PM EDT
Civil Twilight 7:06 AM EDT 7:03 PM EDT
Nautical Twilight 6:39 AM EDT 7:30 PM EDT
Astronomical Twilight 6:12 AM EDT 7:57 PM EDT
Moon 1:49 PM EDT (11/2) 12:25 AM EDT (11/2)
Length of Visible Light 11h 56m
Length of Day
11h 09m
Waxing Crescent, 50% of the Moon is Illuminated
Nov 2
Waxing Crescent
Nov 2
First Quarter
Nov 10
Full
Nov 18
Last Quarter
Nov 25
New

Hourly Weather History & Observations

Time (EDT) Temp. Heat Index Dew Point Humidity Pressure Visibility Wind Dir Wind Speed Gust Speed Precip Events Conditions
12:53 AM 73.0 °F - 69.1 °F 87% 30.06 in 10.0 mi NE 13.8 mph 18.4 mph 0.00 in   Mostly Cloudy
1:53 AM 73.0 °F - 69.1 °F 87% 30.05 in 10.0 mi NE 6.9 mph - 0.00 in   Overcast
2:27 AM 73.4 °F - 69.8 °F 88% 30.05 in 10.0 mi NE 9.2 mph - 0.00 in   Overcast
2:46 AM 73.4 °F - 69.8 °F 88% 30.05 in 10.0 mi NE 10.4 mph - 0.00 in   Overcast
2:53 AM 73.0 °F - 70.0 °F 90% 30.04 in 10.0 mi NE 9.2 mph - 0.00 in   Overcast
3:53 AM 73.0 °F - 70.0 °F 90% 30.04 in 10.0 mi NE 12.7 mph - 0.00 in   Mostly Cloudy
4:53 AM 73.0 °F - 69.1 °F 87% 30.04 in 10.0 mi NNE 5.8 mph - N/A   Mostly Cloudy
5:53 AM 73.0 °F - 69.1 °F 87% 30.05 in 10.0 mi NNE 8.1 mph - N/A   Mostly Cloudy
6:53 AM 73.0 °F - 69.1 °F 87% 30.07 in 10.0 mi NE 8.1 mph - N/A   Mostly Cloudy
7:53 AM 73.9 °F - 69.1 °F 85% 30.09 in 10.0 mi NE 5.8 mph - N/A   Mostly Cloudy
8:23 AM 75.2 °F - 68.0 °F 78% 30.10 in 10.0 mi ENE 11.5 mph - N/A   Partly Cloudy
8:53 AM 75.2 °F - 68.0 °F 78% 30.10 in 10.0 mi ENE 10.4 mph - N/A   Partly Cloudy
9:53 AM 78.1 °F - 68.0 °F 71% 30.11 in 10.0 mi ENE 17.3 mph 23.0 mph N/A   Partly Cloudy
10:53 AM 80.1 °F 82.3 °F 66.9 °F 64% 30.12 in 10.0 mi ENE 18.4 mph - N/A   Partly Cloudy
11:53 AM 82.9 °F 85.8 °F 68.0 °F 60% 30.11 in 10.0 mi ENE 18.4 mph - N/A   Mostly Cloudy
12:53 PM 81.0 °F 82.7 °F 64.9 °F 58% 30.09 in 10.0 mi ENE 17.3 mph - N/A   Mostly Cloudy
2:53 PM 79.0 °F - 66.0 °F 64% 30.06 in 10.0 mi ENE 20.7 mph 27.6 mph N/A   Mostly Cloudy
3:53 PM 79.0 °F - 66.0 °F 64% 30.06 in 10.0 mi East 19.6 mph 25.3 mph N/A   Scattered Clouds
4:53 PM 80.1 °F 81.9 °F 64.9 °F 60% 30.06 in 10.0 mi NE 20.7 mph 27.6 mph N/A   Mostly Cloudy
5:53 PM 78.1 °F - 64.0 °F 62% 30.06 in 10.0 mi ENE 16.1 mph - N/A   Clear
6:53 PM 75.0 °F - 63.0 °F 66% 30.07 in 10.0 mi NE 15.0 mph - N/A   Partly Cloudy
7:53 PM 75.0 °F - 61.0 °F 62% 30.09 in 10.0 mi NE 11.5 mph - N/A   Clear
8:53 PM 73.0 °F - 59.0 °F 61% 30.10 in 10.0 mi NE 8.1 mph - N/A   Clear
9:53 PM 72.0 °F - 59.0 °F 64% 30.11 in 10.0 mi NNE 4.6 mph - N/A   Clear
10:53 PM 70.0 °F - 59.0 °F 68% 30.10 in 10.0 mi ENE 4.6 mph - N/A   Clear
11:53 PM 69.1 °F - 60.1 °F 73% 30.10 in 10.0 mi NNE 8.1 mph - N/A   Clear